Theta_e
314 314 314 314 314 314 314 313 313 313 313 314 314 315 316 318 317 318 313 317 317 326 323 320 319 320 320 322 325 325 315 312 310 312 315 322 319 322 325 322 323 325 325 328 331
314 314 314 314 314 314 314 314 313 313 313 313 314 314 316 317 316 312 322 326 326 328 316 317 316 318 315 320 323 319 314 310 315 316 316 320 322 322 320 321 321 323 327 330 330
315 314 314 314 314 314 314 313 313 314 314 313 313 314 315 318 312 311 324 327 327 325 316 318 317 317 313 319 320 318 312 315 315 318 320 319 321 323 321 318 322 323 326 328 328
315 314 314 314 314 314 313 312 313 314 314 313 313 314 315 319 301 313 332 331 329 319 315 315 316 313 312 315 320 313 316 316 316 318 318 319 322 321 322 322 326 326 329 328 326
315 315 314 314 314 314 313 313 313 313 313 312 313 314 316 308 306 318 331 330 320 315 313 314 312 313 310 314 316 313 315 316 319 319 321 322 320 320 320 324 326 329 329 328 327
314 315 315 314 314 314 313 313 312 312 312 313 315 313 311 299 313 323 323 322 316 313 313 315 313 314 312 314 313 315 314 315 320 320 321 318 319 318 321 326 326 327 327 328 327
313 313 314 314 314 313 313 312 311 310 313 315 314 315 309 303 316 320 317 314 315 314 312 316 316 313 314 312 317 315 312 316 318 319 319 320 315 316 322 324 324 325 327 328 328
312 312 312 313 313 312 312 311 310 311 315 313 314 318 303 311 315 315 316 313 316 316 316 319 319 315 315 316 314 312 313 308 316 318 318 317 308 316 322 323 323 325 327 327 328
310 311 311 312 312 311 311 308 310 314 316 316 317 312 303 313 309 313 314 311 313 314 317 318 317 314 314 309 307 309 304 306 310 317 316 315 309 315 322 321 321 324 326 326 327
309 310 310 311 311 310 308 308 312 314 318 319 317 309 310 303 312 315 316 315 311 311 312 314 312 308 310 307 299 302 304 306 307 313 315 312 311 315 319 321 321 323 325 326 327
307 308 310 311 311 310 309 312 305 309 307 307 307 306 306 310 314 314 315 314 314 310 305 309 305 301 304 308 307 306 306 305 309 313 312 310 311 313 316 320 320 322 324 326 327
306 307 309 310 309 307 308 300 297 299 296 306 308 309 313 315 308 310 315 309 309 303 306 304 301 305 306 308 308 307 305 305 308 310 310 309 309 313 316 317 320 321 323 325 327
305 306 308 307 308 309 305 301 306 303 299 305 310 308 308 312 305 306 311 310 307 304 304 302 303 306 304 305 306 306 304 304 304 308 310 309 306 309 314 317 320 322 324 326 326
305 306 307 306 307 309 304 308 311 306 298 297 303 308 309 309 303 309 312 310 307 304 305 304 308 304 304 302 306 302 308 306 305 304 299 308 297 307 311 312 315 319 323 324 325
305 305 306 305 306 303 306 311 311 305 286 297 301 311 309 304 304 305 312 308 303 304 305 302 303 302 301 302 307 304 309 307 306 303 303 303 300 304 309 308 311 314 318 324 326
304 304 305 303 305 307 310 312 310 295 283 293 300 301 302 304 303 305 306 309 309 305 305 304 308 306 304 306 307 309 306 305 305 303 295 301 301 301 305 308 310 311 315 322 325
305 304 303 304 297 308 311 306 294 284 294 290 293 299 300 300 301 301 301 300 298 296 297 301 302 306 306 302 307 307 303 295 293 294 292 302 300 302 308 310 310 311 315 322 326
305 304 304 304 305 308 307 295 284 289 291 296 295 297 295 298 300 300 299 297 301 301 297 295 293 302 306 304 301 302 302 295 289 290 294 302 296 302 310 312 312 314 315 323 326
304 302 301 305 308 308 298 286 286 289 293 292 294 291 292 297 299 299 298 298 300 301 296 295 295 304 305 306 305 302 299 304 297 298 296 299 302 306 309 309 312 314 315 320 325
299 296 296 303 308 302 289 284 288 292 293 294 289 292 289 292 295 297 297 300 299 303 305 300 294 301 304 307 307 304 306 297 299 290 289 296 298 299 305 306 310 312 315 319 323
298 291 300 306 305 292 282 283 287 292 293 290 289 290 293 292 293 294 296 300 302 302 304 302 299 298 302 300 300 301 301 302 302 299 292 291 296 308 307 308 309 312 315 319 321
295 284 302 306 289 287 283 286 289 289 293 292 292 291 290 293 294 293 293 299 304 304 300 304 300 294 297 303 306 304 302 303 297 296 299 298 298 309 311 311 311 311 316 320 322
289 289 301 300 281 284 287 286 288 287 288 288 289 292 293 291 290 295 297 302 304 302 301 303 299 293 293 299 302 300 303 303 304 303 298 295 297 310 311 312 313 314 316 317 318
289 282 291 292 291 286 284 284 283 289 289 290 288 292 291 289 293 292 297 301 304 303 304 306 301 297 293 295 299 296 299 302 302 298 298 299 300 305 308 309 311 315 316 316 316
289 285 290 284 286 285 285 284 283 283 289 290 288 289 288 286 289 290 295 299 304 303 302 304 296 298 299 299 299 298 298 299 299 302 298 301 301 305 308 309 312 314 315 313 313
286 286 291 288 288 286 285 283 283 284 285 284 285 289 291 287 289 289 295 299 300 303 302 303 297 299 296 298 298 296 298 300 300 300 301 302 302 309 311 312 312 311 312 311 312
294 294 289 287 287 284 285 284 284 285 287 291 290 288 289 291 295 296 297 297 296 296 299 300 299 296 293 297 296 293 297 299 300 302 302 299 304 308 308 309 311 311 311 311 311
Wind_Speed
19 21 21 21 20 21 23 21 19 17 17 18 17 17 16 14 17 7 13 5 6 10 10 7 9 6 6 5 4 3 6 3 3 4 5 6 12 4 1 6 8 8 1 6 23
18 20 21 21 19 19 20 21 21 19 17 17 17 17 14 13 10 14 9 4 7 10 7 10 11 9 8 7 5 8 6 3 0 2 2 5 12 10 8 10 9 10 7 16 22
18 19 19 20 20 21 22 21 21 22 20 16 16 15 14 13 8 5 6 6 10 13 16 7 6 11 12 8 8 5 9 3 4 6 6 6 9 7 12 10 11 14 15 20 21
18 19 20 21 22 21 22 22 22 22 22 19 15 13 10 5 4 5 3 5 12 14 11 11 10 13 13 12 8 9 8 8 7 6 6 9 3 9 14 11 9 3 19 21 20
16 18 21 23 24 23 23 22 22 22 22 21 16 9 5 6 10 3 1 5 16 17 17 14 13 13 15 13 9 11 10 6 5 8 10 7 10 10 9 5 2 13 18 20 18
18 17 19 21 23 24 25 25 22 21 21 19 11 5 4 9 2 3 2 10 17 22 19 15 10 12 9 9 15 5 8 8 4 6 7 8 8 4 1 9 9 14 16 17 17
19 20 18 21 24 25 27 28 25 22 17 10 2 5 6 12 1 6 5 5 11 19 18 16 7 12 6 11 6 6 10 7 10 8 6 8 10 12 3 7 9 11 13 15 15
22 21 21 20 23 26 29 28 24 18 8 2 6 4 8 1 2 10 9 6 10 8 11 10 9 11 9 2 7 11 10 13 13 10 6 9 12 4 6 8 10 11 12 13 15
21 21 23 21 23 25 30 29 18 6 3 7 4 3 9 1 7 6 11 7 13 13 6 7 10 12 9 14 13 14 15 17 11 11 7 12 9 6 6 7 8 10 12 12 13
22 22 23 24 25 29 30 22 3 4 5 6 4 5 6 3 6 4 7 10 8 15 11 12 10 13 13 16 18 18 18 11 16 12 12 11 13 9 8 8 8 10 12 13 15
22 23 24 26 23 27 19 4 6 4 5 9 7 8 12 8 4 5 6 13 11 16 18 17 15 19 21 20 19 14 14 19 17 6 9 13 13 13 6 9 10 9 12 13 15
21 22 22 26 23 18 11 9 6 6 13 11 17 19 21 10 8 12 8 14 14 18 19 10 21 19 19 18 19 15 16 18 14 6 10 15 14 13 9 8 9 11 12 15 15
20 21 22 26 23 5 10 11 4 3 8 10 10 12 13 17 12 17 13 18 17 20 20 22 12 20 15 17 22 20 20 17 15 10 11 12 16 15 11 8 7 8 12 15 18
18 19 21 25 6 11 4 13 11 5 7 5 6 7 6 10 13 18 20 12 16 23 20 20 20 15 23 26 23 22 17 17 15 14 15 14 15 17 13 11 10 12 14 16 19
16 17 18 10 8 7 12 15 11 4 6 4 4 3 1 11 8 14 20 18 23 20 21 22 16 20 23 25 23 22 17 18 17 16 16 14 11 15 9 14 14 14 15 17 19
15 15 17 3 6 8 14 18 4 2 10 4 2 4 6 12 10 1 14 19 13 21 22 23 15 20 23 19 23 19 9 12 10 13 17 19 17 16 13 15 12 6 8 17 19
14 13 11 5 7 11 12 8 5 5 2 9 14 10 14 10 10 14 14 21 17 20 25 22 21 14 11 19 17 22 16 13 14 14 15 17 17 16 6 7 11 10 3 13 18
17 15 5 5 6 7 8 6 7 15 21 16 18 17 18 19 17 19 17 21 29 26 14 23 21 27 17 24 18 23 20 11 18 14 16 11 12 15 11 9 7 7 6 10 16
12 5 7 3 5 3 5 10 12 13 14 18 20 22 26 20 20 15 25 24 26 30 26 18 30 19 19 19 24 23 25 20 18 5 11 13 14 4 8 10 11 9 9 13 14
5 5 7 4 6 4 6 20 19 23 24 19 22 14 24 28 24 23 20 20 27 28 25 17 16 18 22 20 22 21 16 16 14 19 18 19 16 10 15 15 15 9 10 11 12
4 5 1 4 6 5 13 13 19 27 27 11 25 24 23 22 27 25 25 24 18 25 26 26 15 14 15 24 25 12 17 19 18 16 16 15 14 13 13 13 15 13 6 10 11
3 5 5 7 6 4 11 20 12 29 26 25 29 24 25 26 22 29 31 26 19 20 26 31 16 15 24 22 25 27 25 22 13 19 16 15 13 8 14 14 11 10 9 10 11
3 6 6 6 9 13 19 24 24 28 29 28 29 29 24 27 22 24 26 27 18 15 22 23 20 17 18 14 14 20 26 26 23 16 21 16 13 7 9 8 10 11 12 9 8
4 4 5 7 12 17 20 24 23 22 27 31 28 29 28 31 24 17 20 19 16 23 21 19 23 27 20 30 16 20 25 27 24 18 16 20 16 15 14 13 12 13 13 11 8
4 7 11 9 10 14 17 16 24 25 21 29 26 34 31 28 27 27 28 23 14 9 8 19 23 27 31 28 20 21 23 28 28 28 26 19 23 20 17 16 16 16 13 9 7
6 4 6 14 20 20 19 23 28 30 26 29 22 28 29 34 27 24 10 11 12 2 13 15 20 25 26 26 26 24 25 27 32 29 32 26 23 19 20 15 12 15 15 12 8
4 5 6 12 18 16 17 17 10 16 18 24 30 27 29 29 28 31 22 18 19 17 13 11 16 15 21 23 26 24 25 27 23 24 24 25 22 11 11 14 17 16 13 11 7
Wind_Direction
13 8 6 2 355 345 342 343 338 338 335 332 329 328 325 324 301 228 250 241 180 155 202 158 193 202 210 198 223 257 241 147 95 209 95 162 208 171 265 167 197 172 91 102 142
12 6 2 356 347 343 341 337 332 331 330 327 323 322 319 324 282 262 244 163 144 178 200 194 194 194 202 207 204 256 259 106 301 316 302 200 223 159 205 197 191 165 130 132 148
5 2 357 351 347 341 338 334 329 326 323 323 318 318 314 310 272 243 62 183 176 190 222 215 223 208 216 212 190 188 263 41 274 274 265 229 219 201 225 221 222 201 160 154 156
356 353 351 349 343 340 334 330 326 323 318 318 318 310 308 261 274 99 354 187 172 194 198 196 205 208 218 208 193 241 241 280 298 282 253 237 256 216 240 260 40 227 157 162 167
350 348 348 344 339 337 331 327 325 319 313 315 314 299 257 224 254 82 214 165 178 190 189 193 206 218 222 215 191 232 258 281 286 241 247 245 234 253 252 245 84 125 157 168 171
351 344 342 339 336 333 327 325 324 316 310 310 310 264 230 248 26 22 95 162 182 188 195 193 213 219 253 226 217 211 259 262 243 214 194 228 230 250 210 110 128 148 165 170 172
357 351 339 337 334 331 326 323 322 317 313 306 199 239 245 253 310 138 98 150 201 196 193 197 206 197 202 216 214 225 237 216 216 206 203 227 234 231 145 147 157 164 168 168 169
356 351 345 335 332 330 324 319 319 318 312 117 168 247 263 214 279 245 250 238 195 207 231 189 207 224 233 102 193 214 229 221 185 191 180 221 263 157 126 185 175 177 172 172 175
354 350 345 336 331 328 319 318 316 343 95 147 197 268 268 244 237 237 211 207 185 206 222 178 201 217 187 215 211 207 224 218 163 204 184 220 271 136 149 190 184 187 174 176 176
354 350 346 335 332 329 322 309 279 261 199 230 239 255 236 335 326 314 194 181 168 185 187 197 206 211 220 213 219 215 221 220 235 172 224 204 251 262 177 200 204 187 174 176 182
355 351 345 334 334 329 327 340 347 183 353 306 303 283 280 316 278 235 184 191 175 187 200 202 215 214 208 221 242 257 211 228 215 176 238 235 254 271 215 205 209 193 178 180 190
355 353 347 331 333 324 13 66 56 317 302 282 261 256 262 275 276 256 195 190 194 200 203 187 226 222 230 219 231 225 224 233 243 167 241 256 255 249 230 244 220 199 188 181 186
352 355 349 332 323 343 54 56 347 294 267 288 242 254 236 199 226 240 195 215 208 208 202 217 222 227 214 216 222 221 229 230 235 190 235 264 257 241 216 221 197 209 195 187 188
351 354 348 327 305 336 83 354 341 184 275 263 227 245 208 219 241 225 200 205 217 220 214 235 229 210 212 223 215 221 220 241 242 241 250 204 254 228 212 213 217 199 194 194 190
351 355 350 7 323 338 341 325 331 219 311 72 187 37 179 206 352 207 197 206 229 212 203 222 217 206 221 220 215 233 214 228 236 248 253 219 247 259 176 229 235 231 192 189 194
351 354 342 9 308 337 322 312 248 229 243 285 244 221 206 218 238 17 195 226 230 229 218 238 208 223 226 225 220 227 204 217 231 245 239 235 239 242 206 225 255 246 262 181 189
347 350 328 314 328 321 314 289 186 196 269 250 248 226 241 235 226 225 202 203 204 205 222 217 222 222 226 213 212 217 209 222 224 222 240 232 231 240 227 228 259 268 176 178 181
339 330 345 292 287 313 299 227 205 236 239 274 291 271 256 249 238 222 226 222 217 217 221 219 216 212 193 213 197 206 204 212 223 227 231 182 231 235 228 238 242 253 217 169 175
321 335 314 289 254 228 248 215 209 243 245 251 259 252 255 247 247 225 222 229 222 219 224 218 230 200 208 204 216 199 215 218 247 297 269 203 218 247 204 221 217 229 192 175 175
323 317 275 247 215 183 212 229 234 250 276 281 268 257 252 242 234 233 229 233 236 221 226 228 241 206 201 204 212 214 210 205 226 228 233 235 228 233 196 216 207 211 203 179 171
299 297 95 261 180 208 225 233 262 264 275 285 263 269 274 263 254 240 231 236 237 221 213 229 226 199 193 207 207 188 213 213 211 219 228 236 222 216 225 213 213 216 203 180 174
281 263 108 173 220 211 240 247 253 267 272 271 263 268 278 273 276 247 244 237 212 223 209 217 219 219 211 218 219 214 213 204 209 205 233 246 238 149 222 219 210 218 170 155 157
248 262 204 240 252 250 258 263 268 267 258 262 267 254 260 263 270 258 254 245 253 241 212 210 219 223 216 203 216 230 212 216 222 229 219 221 220 165 179 196 197 191 171 168 154
251 260 213 212 246 266 273 271 269 264 266 258 260 261 268 253 263 270 269 247 246 229 227 214 218 220 215 219 193 213 217 218 212 222 220 224 217 177 193 200 191 192 188 183 168
208 234 242 254 237 240 252 266 269 275 272 255 246 249 247 260 248 258 257 265 242 224 228 219 218 225 230 226 215 209 210 209 217 226 224 222 224 235 202 210 206 192 187 192 194
260 238 234 250 256 264 263 263 267 270 267 260 261 258 248 237 248 258 270 318 253 187 215 222 221 226 230 232 224 221 213 211 217 221 231 234 240 224 237 243 176 191 192 191 184
225 228 242 243 247 255 256 264 273 302 295 265 261 250 256 244 235 248 269 284 289 288 286 218 221 213 225 220 223 227 220 213 213 221 226 229 234 169 189 196 193 186 190 181 172